Torna al catalogo

COSMOS 872

AttivoMilitareLEO
NORAD 9589·PAYLOAD·🇷🇺 Russia

Lanciato Dec 7, 1976 da Plesetsk Cosmodrome

Loading…

Prossimi Passaggi (prossime 24 ore)

TLE

AggiornatoSource: Space-Track

Epoca: Sep 14, 2026, 15:37 UTC

1 09589U 76118B   26257.65087108 -.00000014  00000-0  14017-4 0  9994
2 09589  74.0304 204.0674 0040961  73.6966  98.3336 12.58111336285751

Traccia COSMOS 872 in tempo reale con AllMySat

Download on the App Store